Location: Newark
(46.3150°N, 5.9081°E)
Time: 14:09:35
(UTC+00:00)

OTV 5 (USA 277) - Pass Details

Date: 19 October 2019
Orbit: 310 x 324 km, 54.5° (Epoch: 17 October)

Event Time Altitude Azimuth Distance (km) Brightness Sun altitude
Exits shadow 04:50:26 26° 269° (W) 681 ? -12.5°
Maximum altitude 04:51:27 38° 221° (SW) 513 ? -12.3°
Drops below altitude 10° 04:54:01 10° 150° (SSE) 1,228 ? -11.8°
Sets 04:56:02 0° 142° (SE) 2,053 ? -11.5°
